Location: Six Mile Lake
(44.9000°N, 79.7170°W)
Time: 20:29:56
(UTC-04:00)

UKube-1 - Visible Passes

Search period start: 29 June 2022 00:00
Search period end: 09 July 2022 00:00
Orbit: 610 x 614 km, 98.4° (Epoch: 29 June)

Date Brightness Start Highest point End Pass type
(mag) Time Alt. Az. Time Alt. Az. Time Alt. Az.
29 Jun ? 22:32:26 10° NE 22:35:59 25° E 22:37:55 18° SE visible
30 Jun ? 00:08:03 10° N 00:11:55 33° WNW 00:14:56 15° SW visible
30 Jun ? 22:46:57 10° NNE 22:50:54 34° E 22:52:53 23° SE visible
01 Jul ? 00:23:10 10° NNW 00:26:38 24° WNW 00:29:53 11° WSW visible
01 Jul ? 23:01:35 10° NNE 23:05:46 49° E 23:07:51 26° SSE visible
02 Jul ? 00:38:24 10° NNW 00:41:18 18° WNW 00:44:11 10° WSW visible
02 Jul ? 23:16:19 10° NNE 23:20:38 71° ESE 23:22:48 28° S visible
03 Jul ? 00:53:55 10° NNW 00:55:57 13° WNW 00:57:59 10° W visible
03 Jul ? 23:31:07 10° NNE 23:35:26 81° WNW 23:37:45 27° SSW visible
04 Jul ? 22:11:35 10° ENE 22:13:58 14° E 22:15:43 12° ESE visible
04 Jul ? 23:45:59 10° N 23:50:13 56° WNW 23:52:42 23° SW visible
05 Jul ? 22:25:42 10° NE 22:28:54 20° E 22:30:39 16° SE visible
06 Jul ? 00:00:56 10° N 00:04:57 40° WNW 00:07:38 19° SW visible
06 Jul ? 22:40:05 10° NE 22:43:49 28° E 22:45:34 21° SE visible
07 Jul ? 00:15:58 10° N 00:19:40 29° WNW 00:22:34 14° WSW visible
07 Jul ? 22:54:38 10° NNE 22:58:43 40° E 23:00:30 26° SSE visible
08 Jul ? 00:31:06 10° NNW 00:34:21 21° WNW 00:37:30 10° WSW visible
08 Jul ? 23:09:18 10° NNE 23:13:33 57° E 23:15:26 30° SSE visible
